GONETS-M 21 (47228 NORAD) Tracking and Keplerian Element Data

This shows tracking and keplerian element data for the satellite.

Feedback or suggestion? Click here.




ElementValue
Catalog47228
NameGONETS-M 21
Epoch Orbit1103
Epoch Day60.91413176
Epoch Year2021
RAAN63.9927
Inclination82.4934
Eccentricity0.0015941
Argument of Perigee91.7119
Mean Anonmoly268.5788
Mean Motion12.42860644
Decay Rate2.4E-07
L11 47228U 20091B 21060.91413176 .00000024 00000-0 10000-3 0 9996
L22 47228 82.4934 63.9927 0015941 91.7119 268.5788 12.42860644 11035

Live tracking and technical data element details for GONETS-M 21 (NORAD 47228). GONETS-M 21 can be tracked NOW for your location showing map with azimuth and elevation plus other details from your city location.

Track the satellite on the map from your city or location and see movement details for azimuth, elevation, latitude, longitude, range, height, and movement on the map or in text.







IsCatalogInMostPopularTable: catalog: 47228, numindb: 30
Update: records affected: 1



GetName: 47228 GONETS-M 21

Hit Count: updated at: Tue, 02 Mar 2021 13:29:40 GMT